GW1765 Weather Reports


Display with metric or nautical units.
time (UTC)temp
F
wind
direction
speed
MPH
gust
MPH
rain 1hr
in
rain 24hr
in
rain mn
in
humidity
%
barometer
mb
20260906092108 58 0.0 0.0 0.05 0.20 0.20 99 1005.3
20260906091104 58 0.0 0.0 0.02 0.18 0.18 99 1005.4
20260906090142 58 0.0 0.0 0.02 0.18 0.18 99 1005.6
20260906085119 58 0.0 0.0 0.02 0.18 0.18 99 1005.7
20260906084114 58 0.0 3.0 0.02 0.18 0.18 99 1005.8
20260906083051 58 0.0 0.0 0.02 0.18 0.18 99 1005.8
20260906082048 58 0.0 0.0 0.02 0.15 0.15 99 1005.9
20260906081103 58 318 1.0 8.0 0.04 0.15 0.15 99 1006.1
20260906080039 58 0.0 4.0 0.05 0.15 0.15 99 1006.3
20260906075036 57 349 0.0 8.0 0.05 0.15 0.15 99 1006.3
20260906074032 57 326 0.0 8.0 0.07 0.15 0.15 99 1006.4
20260906073028 57 332 2.0 9.0 0.08 0.15 0.15 99 1006.4
20260906072027 57 351 0.0 8.0 0.07 0.13 0.13 99 1006.6
20260906071021 57 328 3.0 11.0 0.06 0.12 0.12 99 1006.7
20260906070019 57 320 5.0 11.0 0.05 0.11 0.11 99 1006.9
20260906065115 56 336 6.0 12.0 0.06 0.11 0.11 99 1006.9
20260906064132 56 317 10.0 13.0 0.05 0.08 0.08 99 1006.9
20260906063110 56 337 11.0 15.0 0.06 0.07 0.07 99 1007.0
20260906062106 56 309 12.0 15.0 0.05 0.06 0.06 99 1007.1
20260906061100 55 355 13.0 17.0 0.05 0.06 0.06 98 1007.4
20260906060057 55 15 14.0 19.0 0.05 0.06 0.06 98 1007.4
20260906055055 55 319 15.0 22.0 0.04 0.05 0.05 97 1007.6
20260906054111 55 336 16.0 23.0 0.02 0.04 0.04 97 1007.5
20260906053046 55 12 15.0 25.0 0.00 0.01 0.01 97 1007.4
20260906052044 55 346 15.0 23.0 0.00 0.01 0.01 96 1007.6
20260906051039 55 354 19.0 27.0 0.00 0.01 0.01 96 1007.8
20260906050037 55 350 16.0 24.0 0.00 0.01 0.01 96 1007.8
20260906045054 55 334 16.0 23.0 0.00 0.01 0.01 95 1008.1
20260906044029 55 350 17.0 23.0 0.00 0.01 0.01 95 1008.3
20260906043026 55 325 19.0 27.0 0.00 0.01 0.01 95 1008.3
20260906042021 54 342 16.0 29.0 0.00 0.01 0.01 96 1008.6
20260906041018 54 354 18.0 27.0 0.01 0.01 0.01 96 1008.8
20260906040115 55 322 23.0 36.0 0.01 0.01 0.01 95 1008.9
20260906035111 55 334 20.0 30.0 0.01 0.01 0.01 93 1009.0
20260906034129 55 332 18.0 25.0 0.01 0.01 0.01 93 1009.3
20260906033106 55 355 18.0 26.0 0.01 0.01 0.01 92 1009.5
20260906032102 55 356 18.0 23.0 0.01 0.01 0.01 91 1009.6
20260906031058 55 3 17.0 27.0 0.00 0.00 0.00 90 1009.9
20260906030057 55 339 16.0 22.0 0.00 0.00 0.00 89 1010.1
20260906025054 55 344 18.0 28.0 0.00 0.00 0.00 88 1010.2
20260906024047 55 346 17.0 25.0 0.00 0.00 0.00 87 1010.1
20260906023045 55 340 18.0 28.0 0.00 0.00 0.00 85 1010.1
20260906022040 55 5 18.0 23.0 0.00 0.00 0.00 84 1010.2
20260906021037 56 4 19.0 27.0 0.00 0.00 0.00 84 1010.3
20260906020053 56 0 19.0 26.0 0.00 0.00 0.00 83 1010.4
20260906015030 56 336 19.0 30.0 0.00 0.01 0.00 83 1010.7
20260906014026 56 0 19.0 27.0 0.00 0.01 0.00 82 1010.9
20260906013024 56 357 21.0 37.0 0.00 0.01 0.00 81 1011.0
20260906012022 56 339 23.0 34.0 0.00 0.01 0.00 81 1011.2
20260906011016 57 348 19.0 27.0 0.00 0.01 0.00 80 1011.4
20260906010115 57 336 21.0 28.0 0.00 0.01 0.00 80 1011.6
20260906005111 57 356 24.0 34.0 0.00 0.01 0.00 80 1011.8
20260906004106 57 355 21.0 30.0 0.00 0.01 0.00 80 1012.1
20260906003144 57 346 21.0 32.0 0.00 0.01 0.00 81 1012.4
20260906002122 57 359 20.0 36.0 0.00 0.01 0.00 80 1012.7
20260906001025 57 340 22.0 37.0 0.00 0.01 0.00 80 1013.0
20260906000022 57 325 21.0 27.0 0.00 0.01 0.00 78 1013.1
20260905235018 57 353 21.0 30.0 0.00 0.01 0.00 79 1013.3
20260905234115 57 351 22.0 29.0 0.00 0.01 0.00 79 1013.3
20260905233111 57 341 24.0 33.0 0.00 0.01 0.00 78 1013.3
20260905232108 57 320 20.0 34.0 0.00 0.01 0.00 79 1013.4
20260905231106 57 330 22.0 34.0 0.00 0.01 0.00 80 1013.4
20260905225059 56 341 18.0 28.0 0.00 0.01 0.00 80 1014.1
20260905224054 56 338 19.0 28.0 0.00 0.01 0.00 81 1014.2
20260905223113 56 341 18.0 25.0 0.00 0.01 0.00 81 1014.2
20260905222047 56 348 16.0 23.0 0.00 0.01 0.00 82 1014.2
20260905221046 56 350 14.0 18.0 0.00 0.01 0.00 83 1014.5
20260905220041 56 343 15.0 21.0 0.00 0.01 0.00 83 1014.8
20260905215058 56 334 14.0 21.0 0.00 0.01 0.00 83 1015.1
20260905214034 56 333 13.0 19.0 0.00 0.01 0.00 84 1015.4
20260905213032 56 346 15.0 21.0 0.00 0.01 0.00 85 1015.5
20260905212028 55 358 14.0 21.0 0.00 0.01 0.00 86 1015.5
20260905211023 55 331 16.0 22.0 0.00 0.01 0.00 87 1015.8
20260905210019 55 349 14.0 22.0 0.00 0.01 0.00 88 1015.9
20260905205018 55 359 13.0 20.0 0.00 0.01 0.00 89 1015.9
20260905204112 55 3 15.0 22.0 0.00 0.01 0.00 91 1015.7
20260905203131 54 349 13.0 19.0 0.00 0.01 0.00 92 1015.8
20260905202105 54 358 11.0 15.0 0.00 0.01 0.00 94 1015.8
20260905201103 54 356 13.0 17.0 0.00 0.01 0.00 94 1015.8
20260905200120 54 342 12.0 16.0 0.00 0.01 0.00 95 1015.8
20260905195055 54 4 10.0 13.0 0.00 0.01 0.00 95 1016.0
20260905194051 54 347 12.0 17.0 0.00 0.01 0.00 96 1016.0
20260905193048 54 344 12.0 15.0 0.00 0.01 0.00 96 1016.0
20260905192045 54 339 10.0 14.0 0.00 0.01 0.00 96 1015.9
20260905191041 54 352 12.0 15.0 0.00 0.01 0.00 96 1015.9
20260905190039 54 3 11.0 17.0 0.00 0.01 0.00 97 1015.8
20260905185034 54 334 9.0 14.0 0.00 0.01 0.00 97 1015.8
20260905184030 54 334 9.0 13.0 0.00 0.01 0.00 97 1015.5
20260905183028 54 351 10.0 14.0 0.00 0.01 0.00 98 1015.4
20260905182045 54 351 9.0 15.0 0.00 0.01 0.00 98 1015.4
20260905181019 53 13 10.0 14.0 0.00 0.01 0.00 98 1015.4
20260905180018 53 360 10.0 14.0 0.00 0.01 0.00 98 1015.4
20260905175113 53 358 8.0 11.0 0.00 0.01 0.00 98 1015.5
20260905174109 53 353 7.0 11.0 0.00 0.01 0.00 98 1015.4
20260905173106 53 355 8.0 12.0 0.00 0.01 0.00 98 1015.5
20260905172122 53 0 8.0 11.0 0.00 0.01 0.00 98 1015.6
20260905171100 53 0 8.0 11.0 0.00 0.01 0.00 98 1015.6
20260905170056 53 0 7.0 11.0 0.00 0.01 0.00 98 1015.7
20260905165053 54 344 9.0 11.0 0.00 0.01 0.00 98 1015.6
20260905164048 53 355 10.0 13.0 0.00 0.01 0.00 98 1015.5
20260905163044 53 336 10.0 15.0 0.00 0.01 0.00 98 1015.5
20260905162042 53 331 9.0 14.0 0.00 0.01 0.00 98 1015.7
20260905161037 53 349 6.0 8.0 0.00 0.01 0.00 98 1015.6
20260905160036 53 345 8.0 12.0 0.00 0.01 0.00 98 1015.5
20260905155031 53 355 8.0 11.0 0.00 0.01 0.00 98 1015.4
20260905154027 53 334 6.0 8.0 0.00 0.01 0.00 98 1015.4
20260905153024 53 4 7.0 10.0 0.00 0.01 0.00 97 1015.3
20260905152020 53 345 7.0 9.0 0.00 0.01 0.00 97 1015.5
20260905151039 53 0 6.0 9.0 0.00 0.01 0.00 97 1015.8
20260905150113 53 351 8.0 10.0 0.00 0.01 0.00 97 1015.9
20260905145112 53 346 7.0 10.0 0.00 0.01 0.00 97 1016.0
20260905144107 53 340 6.0 9.0 0.00 0.01 0.00 97 1016.0
20260905143104 53 315 7.0 11.0 0.00 0.01 0.00 97 1016.2
20260905142059 54 345 9.0 11.0 0.00 0.01 0.00 97 1016.4
20260905141056 54 315 10.0 13.0 0.00 0.01 0.00 96 1016.6
20260905140052 54 327 7.0 13.0 0.00 0.01 0.00 96 1016.5
20260905135049 54 329 7.0 10.0 0.00 0.01 0.00 96 1016.7
20260905134045 54 318 7.0 11.0 0.00 0.01 0.00 96 1017.1
20260905133042 54 315 8.0 9.0 0.00 0.01 0.00 96 1017.1
20260905132038 54 315 7.0 10.0 0.00 0.01 0.00 96 1017.1
20260905131036 54 295 6.0 9.0 0.00 0.01 0.00 95 1017.1
20260905130031 54 308 6.0 11.0 0.00 0.01 0.00 95 1017.1
20260905125028 54 315 9.0 13.0 0.00 0.01 0.00 95 1017.1
20260905124026 54 315 7.0 11.0 0.00 0.01 0.00 95 1017.1
20260905123021 54 315 7.0 11.0 0.00 0.01 0.00 95 1017.0
20260905122018 54 306 7.0 11.0 0.00 0.01 0.00 94 1017.0
20260905121114 54 315 10.0 15.0 0.00 0.01 0.00 94 1017.1
20260905120111 54 309 6.0 10.0 0.00 0.01 0.00 94 1017.2
20260905115107 54 308 6.0 10.0 0.00 0.01 0.01 94 1017.3
20260905114124 54 315 8.0 11.0 0.00 0.01 0.01 94 1017.3
20260905113122 54 323 8.0 10.0 0.00 0.01 0.01 94 1017.4
20260905112056 54 318 8.0 11.0 0.00 0.01 0.01 94 1017.5
20260905111054 54 322 7.0 11.0 0.00 0.01 0.01 94 1017.5
20260905110050 54 315 7.0 11.0 0.00 0.01 0.01 94 1017.7
20260905105048 54 325 5.0 8.0 0.00 0.01 0.01 93 1017.7
20260905104103 54 321 6.0 8.0 0.00 0.01 0.01 93 1017.9
20260905103102 54 315 7.0 11.0 0.00 0.01 0.01 93 1017.9
20260905102036 54 318 7.0 11.0 0.00 0.01 0.01 93 1017.9
20260905101032 54 315 9.0 11.0 0.00 0.01 0.01 93 1017.9
20260905100029 54 318 9.0 11.0 0.00 0.01 0.01 92 1017.9
20260905095025 54 321 8.0 11.0 0.00 0.01 0.01 92 1017.7
20260905094045 54 315 8.0 11.0 0.00 0.01 0.01 92 1017.6
20260905093021 54 315 8.0 11.0 0.00 0.01 0.01 92 1017.6